• în Republica Moldova
  • Lista ţărilor
  • Pe 7 zile
  • Temperatura apei
  • Hartă satelitară
  • Meteo pe hartă
  • Widget-uri
  • user-avatar
    Intrare

    Meteo pe oră la Malanje

    Astăzi, 27 Iunie, Marţi

    Timp Temperatura Precipitaţii Vânt Presiune Umiditate
    00:00 +21°C° 0 mm 2 m/s 666 mmHg 59%
    01:00 +20°C° 0 mm 2 m/s 666 mmHg 70%
    02:00 +20°C° 0 mm 1 m/s 666 mmHg 73%
    03:00 +20°C° 0 mm 1 m/s 666 mmHg 77%
    04:00 +19°C° 0 mm 1 m/s 665 mmHg 81%
    05:00 +19°C° 0 mm 1 m/s 666 mmHg 79%
    06:00 +19°C° 0 mm 1 m/s 666 mmHg 76%
    07:00 +20°C° 0 mm 1 m/s 666 mmHg 74%
    08:00 +23°C° 0 mm 2 m/s 667 mmHg 60%
    09:00 +26°C° 0 mm 2 m/s 668 mmHg 45%
    10:00 +29°C° 0 mm 3 m/s 669 mmHg 31%
    11:00 +30°C° 0 mm 3 m/s 669 mmHg 27%
    12:00 +33°C° 0 mm 3 m/s 668 mmHg 24%
    13:00 +34°C° 0 mm 3 m/s 668 mmHg 21%
    14:00 +34°C° 0 mm 3 m/s 667 mmHg 21%
    15:00 +34°C° 0 mm 2 m/s 667 mmHg 20%
    16:00 +34°C° 0 mm 2 m/s 666 mmHg 19%
    17:00 +29°C° 0 mm 2 m/s 666 mmHg 25%
    18:00 +26°C° 0 mm 2 m/s 665 mmHg 30%
    19:00 +23°C° 0 mm 1 m/s 665 mmHg 36%
    20:00 +21°C° 0 mm 2 m/s 665 mmHg 41%
    21:00 +21°C° 0 mm 2 m/s 666 mmHg 45%
    22:00 +21°C° 0 mm 2 m/s 666 mmHg 50%
    23:00 +20°C° 0 mm 2 m/s 666 mmHg 60%

    Mâine, 28 Iunie, Miercuri

    Timp Temperatura Precipitaţii Vânt Presiune Umiditate
    00:00 +19°C° 0 mm 2 m/s 666 mmHg 69%
    01:00 +19°C° 0 mm 1 m/s 666 mmHg 78%
    02:00 +18°C° 0 mm 1 m/s 666 mmHg 81%
    03:00 +16°C° 0 mm 1 m/s 665 mmHg 84%
    04:00 +16°C° 0 mm 1 m/s 665 mmHg 87%
    05:00 +16°C° 0 mm 1 m/s 666 mmHg 82%
    06:00 +18°C° 0 mm 1 m/s 666 mmHg 77%
    07:00 +19°C° 0 mm 1 m/s 667 mmHg 72%
    08:00 +21°C° 0 mm 2 m/s 667 mmHg 58%
    09:00 +25°C° 0 mm 2 m/s 668 mmHg 44%
    10:00 +28°C° 0 mm 3 m/s 669 mmHg 30%
    11:00 +30°C° 0 mm 3 m/s 668 mmHg 27%
    12:00 +31°C° 0 mm 3 m/s 668 mmHg 23%
    13:00 +33°C° 0 mm 3 m/s 668 mmHg 20%
    14:00 +33°C° 0 mm 3 m/s 667 mmHg 20%
    15:00 +33°C° 0 mm 3 m/s 667 mmHg 19%
    16:00 +33°C° 0 mm 3 m/s 666 mmHg 19%
    17:00 +29°C° 0 mm 2 m/s 666 mmHg 23%
    18:00 +26°C° 0 mm 2 m/s 665 mmHg 28%
    19:00 +23°C° 0 mm 2 m/s 665 mmHg 32%
    20:00 +21°C° 0 mm 2 m/s 665 mmHg 34%
    21:00 +20°C° 0 mm 2 m/s 666 mmHg 36%
    22:00 +20°C° 0 mm 2 m/s 666 mmHg 37%
    23:00 +19°C° 0 mm 1 m/s 666 mmHg 45%

    Poimâine, 29 Iunie, Joi

    Timp Temperatura Precipitaţii Vânt Presiune Umiditate
    00:00 +18°C° 0 mm 1 m/s 666 mmHg 52%
    01:00 +16°C° 0 mm 1 m/s 665 mmHg 60%
    02:00 +15°C° 0 mm 1 m/s 665 mmHg 63%
    03:00 +15°C° 0 mm 1 m/s 665 mmHg 65%
    04:00 +14°C° 0 mm 1 m/s 664 mmHg 68%
    05:00 +15°C° 0 mm 1 m/s 665 mmHg 62%
    06:00 +16°C° 0 mm 2 m/s 666 mmHg 56%
    07:00 +16°C° 0 mm 2 m/s 666 mmHg 51%
    08:00 +20°C° 0 mm 3 m/s 667 mmHg 40%
    09:00 +25°C° 0 mm 4 m/s 668 mmHg 30%
    10:00 +28°C° 0 mm 5 m/s 669 mmHg 20%
    11:00 +30°C° 0 mm 5 m/s 669 mmHg 17%
    12:00 +32°C° 0 mm 4 m/s 668 mmHg 15%
    13:00 +33°C° 0 mm 4 m/s 668 mmHg 12%
    14:00 +33°C° 0 mm 3 m/s 667 mmHg 12%
    15:00 +33°C° 0 mm 3 m/s 667 mmHg 12%
    16:00 +33°C° 0 mm 3 m/s 666 mmHg 11%
    17:00 +28°C° 0 mm 3 m/s 666 mmHg 15%
    18:00 +25°C° 0 mm 2 m/s 665 mmHg 18%
    19:00 +21°C° 0 mm 2 m/s 665 mmHg 22%
    20:00 +20°C° 0 mm 2 m/s 666 mmHg 23%
    21:00 +19°C° 0 mm 2 m/s 666 mmHg 24%
    22:00 +19°C° 0 mm 2 m/s 666 mmHg 24%
    23:00 +18°C° 0 mm 2 m/s 666 mmHg 28%

    30 Iunie, Vineri

    Timp Temperatura Precipitaţii Vânt Presiune Umiditate
    00:00 +17°C° 0 mm 2 m/s 666 mmHg 32%
    01:00 +16°C° 0 mm 2 m/s 666 mmHg 36%
    02:00 +16°C° 0 mm 2 m/s 665 mmHg 38%
    03:00 +15°C° 0 mm 2 m/s 665 mmHg 39%
    04:00 +15°C° 0 mm 2 m/s 665 mmHg 41%
    05:00 +15°C° 0 mm 2 m/s 665 mmHg 41%
    06:00 +14°C° 0 mm 3 m/s 666 mmHg 41%
    07:00 +16°C° 0 mm 3 m/s 667 mmHg 41%
    08:00 +20°C° 0 mm 3 m/s 668 mmHg 35%
    09:00 +23°C° 0 mm 4 m/s 669 mmHg 28%
    10:00 +28°C° 0 mm 4 m/s 670 mmHg 22%
    11:00 +29°C° 0 mm 4 m/s 669 mmHg 20%
    12:00 +31°C° 0 mm 3 m/s 668 mmHg 17%
    13:00 +33°C° 0 mm 3 m/s 668 mmHg 15%
    14:00 +32°C° 0 mm 2 m/s 667 mmHg 15%
    15:00 +32°C° 0 mm 2 m/s 667 mmHg 14%
    16:00 +32°C° 0 mm 2 m/s 666 mmHg 14%
    17:00 +28°C° 0 mm 1 m/s 666 mmHg 19%
    18:00 +25°C° 0 mm 1 m/s 665 mmHg 23%
    19:00 +21°C° 0 mm 1 m/s 665 mmHg 28%
    20:00 +21°C° 0 mm 1 m/s 665 mmHg 30%
    21:00 +20°C° 0 mm 1 m/s 665 mmHg 31%
    22:00 +19°C° 0 mm 1 m/s 666 mmHg 33%
    23:00 +18°C° 0 mm 1 m/s 665 mmHg 40%

    1 Iulie, Sâmbătă

    Timp Temperatura Precipitaţii Vânt Presiune Umiditate
    00:00 +18°C° 0 mm 1 m/s 665 mmHg 46%
    01:00 +16°C° 0 mm 1 m/s 665 mmHg 52%
    02:00 +15°C° 0 mm 1 m/s 665 mmHg 53%
    03:00 +15°C° 0 mm 1 m/s 665 mmHg 54%
    04:00 +15°C° 0 mm 1 m/s 664 mmHg 54%
    05:00 +15°C° 0 mm 2 m/s 665 mmHg 51%
    06:00 +16°C° 0 mm 2 m/s 666 mmHg 47%
    07:00 +17°C° 0 mm 2 m/s 667 mmHg 43%
    08:00 +20°C° 0 mm 3 m/s 667 mmHg 36%
    09:00 +25°C° 0 mm 4 m/s 668 mmHg 30%
    10:00 +29°C° 0 mm 4 m/s 669 mmHg 23%
    11:00 +30°C° 0 mm 4 m/s 669 mmHg 21%
    12:00 +32°C° 0 mm 4 m/s 668 mmHg 19%
    13:00 +34°C° 0 mm 3 m/s 667 mmHg 17%
    14:00 +33°C° 0 mm 3 m/s 667 mmHg 16%
    15:00 +32°C° 0 mm 2 m/s 666 mmHg 16%
    16:00 +32°C° 0 mm 2 m/s 666 mmHg 16%
    17:00 +29°C° 0 mm 2 m/s 666 mmHg 20%
    18:00 +26°C° 0 mm 2 m/s 665 mmHg 24%
    19:00 +22°C° 0 mm 1 m/s 665 mmHg 29%
    20:00 +21°C° 0 mm 1 m/s 665 mmHg 30%
    21:00 +20°C° 0 mm 2 m/s 665 mmHg 32%
    22:00 +19°C° 0 mm 2 m/s 666 mmHg 33%
    23:00 +19°C° 0 mm 1 m/s 665 mmHg 41%

    2 Iulie, Duminică

    Timp Temperatura Precipitaţii Vânt Presiune Umiditate
    00:00 +18°C° 0 mm 1 m/s 665 mmHg 49%
    01:00 +16°C° 0 mm 1 m/s 665 mmHg 57%
    02:00 +15°C° 0 mm 1 m/s 665 mmHg 56%
    03:00 +15°C° 0 mm 1 m/s 665 mmHg 55%
    04:00 +15°C° 0 mm 1 m/s 665 mmHg 54%
    05:00 +15°C° 0 mm 2 m/s 665 mmHg 50%
    06:00 +15°C° 0 mm 2 m/s 666 mmHg 46%
    07:00 +16°C° 0 mm 2 m/s 666 mmHg 42%
    08:00 +20°C° 0 mm 3 m/s 667 mmHg 36%
    09:00 +23°C° 0 mm 4 m/s 668 mmHg 30%
    10:00 +28°C° 0 mm 5 m/s 669 mmHg 23%
    11:00 +29°C° 0 mm 5 m/s 668 mmHg 21%
    12:00 +32°C° 0 mm 4 m/s 668 mmHg 18%
    13:00 +33°C° 0 mm 3 m/s 667 mmHg 15%
    14:00 +33°C° 0 mm 3 m/s 667 mmHg 15%
    15:00 +33°C° 0 mm 3 m/s 666 mmHg 15%
    16:00 +32°C° 0 mm 2 m/s 666 mmHg 14%
    17:00 +29°C° 0 mm 2 m/s 666 mmHg 18%
    18:00 +26°C° 0 mm 2 m/s 665 mmHg 22%
    19:00 +23°C° 0 mm 2 m/s 665 mmHg 26%
    20:00 +21°C° 0 mm 2 m/s 665 mmHg 27%
    21:00 +20°C° 0 mm 2 m/s 665 mmHg 28%
    22:00 +19°C° 0 mm 2 m/s 666 mmHg 30%
    23:00 +18°C° 0 mm 2 m/s 665 mmHg 37%
    Arată mai mult